Regional Weather Roundup
Issued by NWS

Home | Current Version | Previous Version | Graphics & Text | Print | Product List | Glossary On
Versions: 1 2 3 4 5 6 7 8 9 10 11 12 13 14 15 16 17 18 19 20 21 22 23 24 25 26 27 28 29 30 31 32 33 34 35 36 37 38 39 40 41 42 43 44 45 46 47 48 49 50
239
ASUS45 KCYS 252210
RWRWY

WYOMING REGIONAL WEATHER ROUNDUP
NATIONAL WEATHER SERVICE CHEYENNE WY
400 PM MDT THU MAY 25 2017

NOTE:  "FAIR" INDICATES FEW OR NO CLOUDS BELOW 12,000 FEET
WITH NO SIGNIFICANT WEATHER AND/OR OBSTRUCTIONS TO VISIBILITY.

WYZ001-252300-
YELLOWSTONE NATIONAL PARK

CITY           SKY/WX    TMP DP  RH WIND       PRES   REMARKS
LK YELLOWSTONE   N/A     44  25  47 MISG      29.87R
W YELLOWSTONE  NOT AVBL

$$
WYZ002>013-054>058-071-098>099-252300-
NORTHERN WYOMING

CITY           SKY/WX    TMP DP  RH WIND       PRES   REMARKS
JACKSON        MOSUNNY   54  18  24 CALM      29.79R
CODY           PTSUNNY   58  29  33 N18       29.77R
GREYBULL       FAIR      61  31  32 NW28G37   29.72S
WORLAND        FAIR      62  33  33 N22G28    29.73R
SHERIDAN       FAIR      58  37  45 NW26G39   29.73R
BUFFALO        PTSUNNY   57  36  45 N25G40    29.73R
GILLETTE       FAIR      58  39  49 NW22      29.69R
HULETT         CLOUDY    57  37  47 NW10G22   29.67R
NEWCASTLE      FAIR      63  28  27 NW14G24   29.65R

$$
WYZ014>020-022>026-101>103-252300-
CENTRAL WYOMING

CITY           SKY/WX    TMP DP  RH WIND       PRES   REMARKS
BIG PINEY      FAIR      58  19  22 SW14      29.78R
PINEDALE       FAIR      54  19  26 W8        29.79R
DUBOIS         FAIR      54  16  22 NW16G24   29.76
LANDER         PTSUNNY   60  27  28 NE14      29.69R
RIVERTON       FAIR      62  25  24 N17G24    29.71R
CASPER         FAIR      63  28  26 NW18G24   29.69R
DOUGLAS        FAIR      66  33  29 NW23G29   29.66R

$$
WYZ021-027>030-104>119-252300-
SOUTHERN WYOMING

CITY           SKY/WX    TMP DP  RH WIND       PRES   REMARKS
EVANSTON       PTSUNNY   57  27  31 W16G26    29.82R
ROCK SPRINGS   CLOUDY    59  23  25 W17G25    29.76R
DIXON            N/A     55  43  63 N10       29.79
RAWLINS        CLOUDY    58  27  30 W21G26    29.74S
LARAMIE        LGT RAIN  52  38  58 SW16G38   29.72R
CHEYENNE       RAIN      53  45  74 N6G17     29.70R
TORRINGTON     FAIR      69  36  29 NW6       29.58F

$$




USA.gov is the U.S. government's official web portal to all federal, state and local government web resources and services.